Погода в Ополе

Польша     50°40′05″N   17°55′58″E
темп.,
°C
ветер,
м/с
пор.,
м/с
влажн.,
%
обл.,
%
осадки,
мм/ч
давл.,
гПа
погр.,
м
28 февраля, вс
вс2801:00+3сз4108997 0.1 1037491
04:00+1зсз499576 0.0 1036382
07:00+2сз479087 0.0 1036529
10:00+4зсз467996 0.0 1036554
13:00+8зсз576162 0.0 1034792
16:00+8сз58660 0.0 1032867
19:00+5сз310860 0.0 1033294
22:00+3сз38950 0.0 1034232
1 марта, пн
пн101:00+2с23977 0.0 103556
04:00+1сз229741 0.0 103531
07:000зсз119736 0.0 103626
10:00+5зюз228040 0.0 1036403
13:00+8зюз116631 0.0 1036604
16:00+9зсз12640 0.0 1034691
19:00+5юз01800 0.0 103522
22:00+4ююз23870 0.0 103523
2 марта, вт
вт201:00+3ююз12900 0.0 103522
04:00+2юз22900 0.0 103422
07:00+2зюз22880 0.0 103422
10:00+8з23660 0.0 1034315
13:00+11зсз23530 0.0 1033653
16:00+11зсз24570 0.0 1032587
19:00+7сз12740 0.0 103222
22:00+5зсз11780 0.0 103322
3 марта, ср
ср301:00+4сз01800 0.0 103322
04:00+3зюз11820 0.0 103222
07:00+2зюз11840 0.0 103222
10:00+8зюз12650 0.0 1031262
13:00+12з11500 0.0 1029628
16:00+12юз11492 0.0 1027661
19:00+8юв11641 0.0 102722
22:00+6ююв12710 0.0 102622
4 марта, чт
чт401:00+5юз128024 0.0 102422
04:00+4юз228476 0.0 102223
07:00+3ююз238486 0.0 102054
10:00+9юз356370 0.0 1018392
13:00+13зюз465583 0.0 1016974
16:00+10зюз4879100 1.5 1013672
19:00+8зюз41183100 2.1 1012698
22:00+7з5128196 0.1 1012785